Flag for Germany Weather past 2 weeks in Amberg, Bavaria, Germany

Now
77 °F

Sunny.


Feels Like: 78 °F
Forecast: 58 / 77 °F
Wind: 6 mph from Northeast

Location: Hohenfels

Current Time: Jul 22, 2014 at 10:20:05 PM

Latest Report: Jul 22, 2014 at 6:58 PM


Visibility: N/A

Pressure: 29.92 "Hg

Humidity: 44%

Dew point: 54 °F

Location of AmbergLocation

Historic Weather in Amberg — Graph

°F

Amberg temperature yesterday

Maximum temperature yesterday: 73 °F (at 3:58 PM)
Minimum temperature yesterday: 63 °F (at 5:58 AM)
Average temperature yesterday: 68 °F

Past Weeks' High & Low Weather Summary

 TemperatureHumidityPressure
High90 °F (Jul 20, 3:58 PM)100% (Jul 10, 11:58 PM)30.18 "Hg (Jul 10, 11:58 PM)
Low52 °F (Jul 9, 7:58 PM)24% (Jul 20, 3:58 PM)29.67 "Hg (Jul 9, 4:58 AM)
Average65 °F77%29.93 "Hg
* Reported Jul 7 7:58 PM — Jul 22 6:58 PM, Amberg, Weather by CustomWeather, © 2014

Note: Actual official high and low records may vary slightly from our data, if they occured in-between our weather recording intervals... More about our weather records

Advertising

Amberg weather history for previous 24 hours

 ConditionsComfort  
Time TempWeatherWind HumidityBarometerVisibility
6:58 PM
Jul 22
77 °FSunny.6 mph44%29.92 "HgN/A
5:58 PM79 °FSunny.7 mph42%29.91 "HgN/A
4:58 PM75 °FScattered clouds.1 mph57%29.91 "HgN/A
3:58 PM77 °FPassing clouds.10 mph57%29.91 "HgN/A
2:58 PM75 °FScattered clouds.7 mph69%29.90 "HgN/A
1:58 PM73 °FScattered clouds.6 mph78%29.90 "HgN/A
1:02 PM70 °FBroken clouds.1 mph94%29.95 "HgN/A
12:58 PM70 °FLight rain. Partly sunny.2 mph94%29.91 "HgN/A
11:59 AM68 °FMore clouds than sun.2 mph94%29.94 "HgN/A
11:58 AM68 °FDrizzle. Broken clouds.5 mph94%29.90 "HgN/A
11:02 AM66 °FDrizzle. Partly sunny.2 mph100%29.94 "HgN/A
9:58 AM66 °FLight rain. Mostly cloudy.3 mph94%29.89 "HgN/A
8:59 AM64 °FLight rain. Fog.5 mph100%29.91 "Hg3 mi
7:59 AM64 °FRain. Fog.3 mph100%29.90 "Hg2 mi
6:58 AM64 °FPartly sunny.3 mph100%29.83 "HgN/A
5:58 AM64 °FPassing clouds.2 mph100%29.83 "HgN/A
4:58 AM64 °FMostly cloudy.2 mph100%29.82 "HgN/A
3:58 AM64 °FLow clouds.3 mph100%29.81 "HgN/A
2:58 AM64 °FLight rain. Fog.2 mph100%29.80 "HgN/A
1:58 AM64 °FLight rain. Fog.3 mph100%29.82 "Hg6 mi
12:59 AM64 °FHeavy rain. Fog.1 mph100%29.86 "Hg2 mi
11:58 PM
Jul 21
64 °FMostly cloudy.3 mph100%29.82 "HgN/A
10:59 PM64 °FOvercast.2 mph94%29.87 "HgN/A
10:04 PM64 °FLight rain. Mostly cloudy.5 mph94%29.87 "HgN/A
Weather by CustomWeather, © 2014

See weather overviewHow to use our weather pages